Home   Weather   Enugu   Past weeks
Flag for Nigeria

Past Weather in Enugu, Nigeria — Yesterday and Last 2 Weeks

Now
79 °F

Passing clouds.


Feels Like: 82 °F
Forecast: 95 / 75 °F
Wind: 5 mph from West

Location: Malabo/Fernando Poo

Current Time: Jan 22, 2019 at 3:20:29 am

Latest Report: Jan 22, 2019 at 2:00 am


Visibility: N/A

Pressure: 29.86 "Hg

Humidity: 89%

Dew Point: 75 °F

Location of EnuguLocation

Past Weather in Enugu — Graph

°F

Enugu Temperature Yesterday

Maximum temperature yesterday: 90 °F (at 12:00 pm)
Minimum temperature yesterday: 77 °F (at 12:00 am)
Average temperature yesterday: 83 °F

High & Low Weather Summary for the Past Weeks

 TemperatureHumidityPressure
High91 °F (Jan 17, 3:00 pm)94% (Jan 10, 12:00 am)29.98 "Hg (Jan 10, 12:00 am)
Low72 °F (Jan 9, 7:00 am)49% (Jan 8, 1:00 pm)29.77 "Hg (Jan 8, 5:00 pm)
Average81 °F79%29.87 "Hg
* Reported Jan 7 1:00 am — Jan 22 1:00 am, Enugu. Weather by CustomWeather, © 2019

Note: Actual official high and low records may vary slightly from our data, if they occured in-between our weather recording intervals... More about our weather records

Advertising

Enugu Weather History for the Previous 24 Hours

Scroll right to see more
 ConditionsComfort  
Time TempWeatherWind HumidityBarometerVisibility
1:00 am
Tue, Jan 22
77 °FPassing clouds.6 mph94%29.89 "HgN/A
12:00 am79 °FPassing clouds.5 mph89%29.89 "HgN/A
11:00 pm
Mon, Jan 21
79 °FPassing clouds.6 mph94%29.92 "HgN/A
10:00 pm79 °FPassing clouds.5 mph94%29.92 "HgN/A
9:00 pm81 °FPassing clouds.6 mph89%29.89 "HgN/A
8:00 pm81 °FPassing clouds.7 mph89%29.86 "HgN/A
7:00 pm82 °FPassing clouds.7 mph84%29.86 "HgN/A
6:00 pm86 °FPassing clouds.8 mph75%29.83 "HgN/A
5:00 pm86 °FPassing clouds.10 mph75%29.83 "HgN/A
4:00 pm88 °FPassing clouds.9 mph70%29.83 "HgN/A
3:00 pm88 °FScattered clouds.10 mph70%29.86 "HgN/A
2:00 pm90 °FPassing clouds.8 mph67%29.89 "HgN/A
1:00 pm90 °FPassing clouds.10 mph67%29.89 "HgN/A
12:00 pm90 °FPassing clouds.10 mph67%29.92 "HgN/A
11:00 am88 °FPassing clouds.8 mph70%29.95 "HgN/A
10:00 am88 °FPassing clouds.7 mph66%29.95 "HgN/A
9:00 am86 °FPassing clouds.5 mph70%29.95 "HgN/A
8:00 am81 °FPassing clouds.1 mph84%29.95 "HgN/A
7:00 am77 °FPassing clouds.5 mph89%29.92 "HgN/A
6:00 am79 °FPassing clouds.5 mph84%29.92 "HgN/A
5:00 am79 °FPassing clouds.6 mph84%29.89 "HgN/A
4:00 am77 °FPassing clouds.6 mph89%29.89 "HgN/A
3:00 am77 °FPassing clouds.3 mph89%29.92 "HgN/A
Weather by CustomWeather, © 2019

See weather overview